Regional Weather Roundup
Issued by NWS Northern Indiana

Home | Current Version | Previous Version | Graphics & Text | Print | Product List | Glossary On
Versions: 1 2 3 4 5 6 7 8 9 10 11 12 13 14 15 16 17 18 19 20 21 22 23 24 25 26 27 28 29 30 31 32 33 34 35 36 37 38 39 40 41 42 43 44 45 46 47 48 49 50
000
ASUS43 KIWX 300210
RWRIWX

KIWX WEATHER ROUNDUP
NATIONAL WEATHER SERVICE NORTHERN INDIANA
1000 PM EDT FRI APR 29 2016

NOTE: "FAIR" INDICATES FEW OR NO CLOUDS BELOW 12,000 FEET WITH NO
SIGNIFICANT WEATHER AND/OR OBSTRUCTIONS TO VISIBILITY.

* THESE STATIONS ARE NOT UNDER NWS QUALITY CONTROL. THEY ALSO MAY NOT
  REPORT WEATHER SUCH AS PRECIPITATION OR FOG.

INZ001>027-300300-
NORTHERN INDIANA

CITY           SKY/WX    TMP DP  RH WIND       PRES   REMARKS
GARY*          CLOUDY    43  43 100 NE8       30.15S
VALPARAISO     CLOUDY    43  40  89 N5        30.14S
MICHIGAN CITY* CLOUDY    43  43 100 N3        30.14F
LAPORTE*       CLOUDY    46  45  97 N8        30.14S
KNOX*          CLOUDY    45  37  76 N7        30.13S
SOUTH BEND     CLOUDY    47  44  90 N6        30.14S
GOSHEN         CLOUDY    50  46  86 NE5       30.12S
MONTICELLO*    CLOUDY    50  43  78 N8        30.11S
LOGANSPORT*    PTCLDY    50  46  87 N6        30.12R
ROCHESTER*     CLOUDY    52  48  87 N3        30.12S
WARSAW*        CLOUDY    50  45  81 E5        30.12S
ANGOLA*        CLOUDY    52  39  62 E8        30.14R
FORT WAYNE     CLOUDY    51  45  79 CALM      30.13R
HUNTINGTON*    CLOUDY   N/A N/A N/A E5        30.12S
PERU/GRISSOM   MOCLDY    48  46  93 NE6       30.10R
MARION*        CLOUDY    52  46  79 E8        30.13R

$$
INZ028>050-300300-
CENTRAL INDIANA

CITY           SKY/WX    TMP DP  RH WIND       PRES   REMARKS
LAFAYETTE      PTCLDY    50  44  80 NE6       30.10S
KOKOMO*        CLOUDY    52  45  76 NE5       30.11R
MUNCIE*        CLOUDY    53  46  77 NE9       30.12R
INDIANAPOLIS   CLOUDY    58  47  66 NE10      30.06R

$$
MIZ043>046-050>051-056>058-064>065-071>073-077>080-300300-
SOUTHWEST LOWER MICHIGAN

CITY           SKY/WX    TMP DP  RH WIND       PRES   REMARKS
BATTLE CREEK   CLOUDY    48  39  71 NE7       30.16R
BENTON HARBOR  CLOUDY    46  41  82 CALM      30.15R
COLDWATER*     CLOUDY    50  41  73 NE8       30.14R
HILLSDALE*     CLOUDY    48  40  74 E9        30.15R
HOLLAND        CLEAR     47  40  76 E5        30.16R
GRAND RAPIDS   PTCLDY    46  38  73 E5        30.16S
KALAMAZOO      CLOUDY    49  39  68 NE7       30.15R
STURGIS*       CLOUDY    50  42  73 NE8       30.13R
THREE RIVERS*  CLOUDY    50  42  73 NE7       30.15R

$$
OHZ001>008-015>018-024>025-300300-
NORTHWEST OHIO

CITY           SKY/WX    TMP DP  RH WIND       PRES   REMARKS
WAUSEON*         N/A     48  30  49 E7        30.16R
DEFIANCE       CLOUDY    50  40  68 E7        30.16R
FINDLAY        CLOUDY    48  39  71 NE8       30.15R
TOLEDO EXPRESS CLOUDY    47  38  71 E8        30.16R
TOLEDO METCALF CLOUDY    47  39  74 E7        30.18R
LIMA           CLOUDY    49  43  80 E8        30.14R

$$
AND FOR LAKE MICHIGAN COASTAL AND OPEN LAKE BUOY OBSERVATIONS

STATION/POSITION TEMP    WIND        PRES    VSBY  WAVE
                 AIR SEA DIR/SP/G                  HT/PER
                 (F)     (DEG/KT/KT) (MB)    (MI)  (FT/S)
CALUMET HARBOR    42                 1020.2R
MICHIGAN CITY     42     360/  8/  9   N/A
BURNS HARBOR      42      30/  7/ 10 1021.3R
SAINT JOSEPH      45      10/  2/  4 1021.3R
SOUTH LAKE BUOY   41 40   40/  8/ 10 1021.2R         1/ 3
4 MI NW BRIDGMAN  45 47                N/A           2/ 3

$$
&&



USA.gov is the U.S. government's official web portal to all federal, state and local government web resources and services.